Total_Precipitation_Accumulation
1.50 1.39 1.35 1.51 1.51 1.63 1.68 1.78 1.83 1.68 1.49 1.33 1.33 1.32 1.41 1.41 1.34 1.29 1.59 1.91 2.30 2.94 3.26 3.22 3.06 2.88 2.83 2.79 2.63 2.56 2.49 2.36 2.53 2.92 3.52 3.78 3.52 3.00 2.67 2.39 2.14 1.90 1.96
1.34 1.36 1.25 1.33 1.43 1.63 1.88 1.98 1.81 1.71 1.59 1.53 1.54 1.48 1.49 1.45 1.40 1.28 1.43 1.58 1.60 1.95 2.53 3.11 3.35 3.23 3.13 3.07 2.83 2.75 2.64 2.47 2.50 2.68 2.74 2.88 2.94 2.66 2.38 2.32 2.15 1.94 2.09
1.15 1.25 1.31 1.30 1.35 1.62 1.92 2.12 2.00 1.87 1.68 1.65 1.65 1.60 1.53 1.52 1.44 1.39 1.48 1.63 1.51 1.51 1.93 2.62 3.28 3.50 3.31 3.19 2.95 2.81 2.58 2.34 2.25 2.34 2.44 2.40 2.56 2.55 2.37 2.28 2.17 2.07 2.07
1.16 1.25 1.36 1.31 1.34 1.59 1.87 2.13 2.19 2.18 2.08 1.98 1.88 1.76 1.67 1.79 1.63 1.52 1.58 1.71 1.81 1.65 1.71 2.09 2.62 3.12 3.28 3.28 2.95 2.63 2.37 2.16 2.11 2.08 2.16 2.03 2.18 2.38 2.37 2.29 2.29 2.36 2.31
1.20 1.31 1.53 1.55 1.56 1.74 1.85 1.89 2.06 2.11 2.19 2.15 1.90 1.85 1.77 1.88 1.97 1.85 1.92 2.01 2.05 1.97 1.85 1.79 1.99 2.23 2.78 3.10 3.01 2.77 2.56 2.29 2.13 2.02 2.12 1.97 1.97 2.24 2.36 2.23 2.29 2.42 2.42
1.42 1.38 1.56 1.61 1.67 1.93 1.98 2.02 2.25 2.26 2.19 2.25 2.01 1.88 1.86 1.86 1.89 2.09 2.23 2.25 2.21 2.01 1.98 1.83 1.93 1.88 2.26 2.68 2.77 2.72 2.65 2.65 2.53 2.33 2.37 2.25 2.07 2.19 2.34 2.21 2.27 2.34 2.44
1.51 1.55 1.61 1.68 1.72 1.85 1.91 2.02 2.38 2.44 2.28 2.14 2.33 2.32 2.22 2.01 1.92 1.99 2.12 2.35 2.41 2.18 2.09 2.08 1.99 1.90 1.83 2.01 2.18 2.46 2.58 2.88 3.00 2.80 2.62 2.42 2.21 2.33 2.45 2.32 2.35 2.34 2.35
1.45 1.40 1.63 1.80 1.78 1.94 1.99 2.14 2.44 2.70 2.45 2.25 2.62 3.10 2.85 2.54 2.17 1.93 1.96 2.02 2.26 2.23 2.05 1.92 1.84 1.85 1.81 1.80 1.67 1.93 2.29 2.80 3.23 3.06 2.66 2.52 2.37 2.30 2.41 2.35 2.34 2.29 2.30
1.71 1.66 1.78 1.95 1.93 2.01 2.11 2.15 2.24 2.76 2.93 2.66 2.58 3.18 3.06 2.80 2.74 2.18 1.76 1.65 1.93 2.12 2.11 1.96 1.90 1.98 1.99 1.99 1.77 1.63 1.86 2.28 2.94 3.00 2.73 2.73 2.65 2.43 2.26 2.18 2.17 2.28 2.39
1.96 1.83 1.89 1.99 2.05 2.13 2.10 1.93 2.08 2.59 3.11 3.16 2.91 2.68 2.52 2.43 2.61 2.52 1.95 1.60 1.66 1.84 2.05 1.93 1.93 2.04 2.10 2.18 2.09 1.76 1.59 1.80 2.36 2.93 3.11 3.03 2.92 2.69 2.46 2.28 2.22 2.25 2.25
2.00 1.85 1.82 1.98 2.10 2.17 2.16 2.18 2.32 2.62 2.95 3.24 3.20 2.92 2.64 2.38 1.96 2.13 2.17 1.94 1.64 1.54 1.62 1.75 1.90 1.97 2.03 2.06 2.11 1.92 1.56 1.44 1.74 2.41 3.02 3.17 3.06 2.94 2.81 2.73 2.75 2.69 2.51
1.86 1.81 1.81 1.87 1.90 1.98 2.08 2.23 2.46 2.60 2.79 3.02 3.08 2.77 2.62 2.52 2.28 2.08 1.91 1.99 1.94 1.61 1.46 1.46 1.58 1.77 1.84 1.95 1.84 1.88 1.60 1.37 1.39 1.58 2.01 2.55 2.78 2.91 2.98 3.04 3.02 2.88 2.82
1.64 1.64 1.69 1.73 1.68 1.71 1.85 2.02 2.23 2.26 2.38 2.60 2.71 2.60 2.44 2.26 2.19 2.23 2.15 2.02 1.87 1.59 1.46 1.31 1.38 1.52 1.53 1.71 1.88 1.86 1.58 1.46 1.31 1.26 1.33 1.58 1.98 2.33 2.66 3.00 3.14 3.10 3.07
1.43 1.37 1.41 1.49 1.51 1.53 1.61 1.78 1.93 1.91 1.97 2.16 2.22 2.29 2.20 2.11 2.10 2.08 2.10 2.23 2.09 1.85 1.50 1.17 1.21 1.37 1.34 1.43 1.75 1.81 1.42 1.34 1.21 1.16 1.17 1.24 1.39 1.66 2.02 2.35 2.65 2.86 2.93
1.17 1.14 1.20 1.32 1.42 1.43 1.44 1.60 1.73 1.68 1.74 1.87 2.02 2.18 2.11 2.04 2.01 2.02 2.07 2.17 2.22 2.09 1.80 1.33 1.17 1.13 1.16 1.26 1.60 1.49 1.35 1.33 1.19 1.13 1.07 1.06 1.12 1.24 1.41 1.66 1.87 2.05 2.15
1.09 1.10 1.12 1.14 1.17 1.21 1.27 1.46 1.64 1.70 1.68 1.74 1.82 1.94 2.07 2.06 2.05 2.03 2.08 2.11 2.09 2.08 1.94 1.52 1.24 1.12 1.20 1.15 1.37 1.14 1.25 1.43 1.20 1.04 0.99 0.97 1.00 1.08 1.19 1.36 1.40 1.37 1.36
0.87 0.88 0.87 0.93 1.07 1.08 1.10 1.28 1.38 1.40 1.53 1.63 1.60 1.63 1.79 1.91 2.02 2.03 2.03 2.03 2.07 2.04 1.90 1.65 1.30 1.15 1.29 1.31 1.36 1.16 1.13 1.17 1.11 1.07 0.99 0.93 0.91 0.97 0.98 1.10 1.22 1.13 1.04
0.64 0.69 0.76 0.76 0.95 1.11 1.14 1.19 1.20 1.20 1.34 1.44 1.46 1.53 1.56 1.57 1.68 1.80 1.92 1.89 1.95 1.99 1.96 1.84 1.55 1.32 1.32 1.42 1.59 1.54 1.39 1.28 1.26 1.35 1.29 1.13 1.02 1.02 1.04 1.06 1.16 1.12 0.93
0.57 0.63 0.74 0.74 0.78 0.93 1.04 1.06 1.06 1.08 1.14 1.19 1.23 1.30 1.33 1.41 1.55 1.56 1.63 1.70 1.77 1.82 1.94 1.89 1.80 1.67 1.51 1.45 1.54 1.52 1.55 1.66 1.58 1.55 1.58 1.41 1.24 1.14 1.10 1.12 1.16 1.16 1.04
0.60 0.62 0.60 0.64 0.69 0.79 0.91 0.94 0.96 0.96 0.97 0.98 1.09 1.16 1.22 1.27 1.37 1.43 1.45 1.59 1.71 1.79 1.82 1.79 1.74 1.66 1.61 1.56 1.57 1.57 1.64 1.77 1.84 1.69 1.62 1.52 1.48 1.38 1.25 1.20 1.16 1.17 1.18
0.44 0.48 0.46 0.48 0.53 0.62 0.69 0.71 0.78 0.86 0.91 0.93 1.03 1.05 1.08 1.08 1.12 1.18 1.18 1.37 1.52 1.69 1.76 1.79 1.69 1.58 1.52 1.53 1.52 1.55 1.63 1.84 1.89 1.90 1.84 1.68 1.54 1.37 1.30 1.25 1.19 1.20 1.22
0.31 0.36 0.39 0.43 0.45 0.47 0.59 0.61 0.62 0.71 0.81 0.86 0.93 0.96 1.04 1.08 1.04 0.99 0.96 1.03 1.16 1.28 1.47 1.60 1.64 1.56 1.48 1.45 1.57 1.69 1.68 1.81 1.93 1.84 1.73 1.79 1.68 1.57 1.40 1.26 1.29 1.31 1.25
0.34 0.36 0.38 0.44 0.40 0.39 0.47 0.45 0.57 0.73 0.75 0.75 0.76 0.89 1.00 1.04 1.08 1.07 0.97 0.97 0.96 0.98 1.09 1.27 1.40 1.42 1.41 1.44 1.55 1.66 1.74 1.80 1.70 1.74 1.69 1.81 1.73 1.58 1.40 1.37 1.44 1.32 1.28
0.35 0.40 0.41 0.45 0.40 0.33 0.39 0.42 0.51 0.61 0.66 0.64 0.67 0.79 0.94 1.05 1.11 1.12 1.07 1.12 1.06 0.94 0.92 0.98 1.16 1.26 1.30 1.47 1.66 1.84 1.95 1.95 1.83 1.76 1.71 1.77 1.67 1.49 1.35 1.33 1.44 1.32 1.23
0.32 0.38 0.45 0.45 0.38 0.32 0.36 0.43 0.53 0.62 0.69 0.68 0.68 0.74 0.90 0.98 1.13 1.17 1.10 1.18 1.17 0.96 0.89 0.97 1.01 1.10 1.25 1.41 1.63 1.85 1.93 1.94 1.91 1.79 1.60 1.49 1.42 1.44 1.42 1.34 1.31 1.31 1.21
0.33 0.36 0.39 0.38 0.34 0.35 0.39 0.41 0.49 0.52 0.62 0.70 0.73 0.75 0.97 1.03 1.12 1.08 1.03 1.22 1.31 1.14 0.88 0.87 0.95 1.09 1.20 1.36 1.61 1.78 2.02 2.03 1.84 1.76 1.57 1.42 1.40 1.50 1.64 1.48 1.28 1.18 1.11